,,,PA_Meas_PMT16A,,PR_Meas_QMR101_102,,RH_Meas_QMH101,,SR_Meas_QMS101,,TA_Meas_QMH101,,GenWind,,GenWind,
date,time,status,PA,status,PR,status,RH,status,SR,status,TA,status,DirAvg,status,SpdAvg,
2013-02-14, 00:00:04,VALID,1009.78,VALID,0,VALID,104,VALID,0,VALID,24.0448,VALID,106,VALID,1.11484,
2013-02-14, 00:01:04,VALID,1009.79,VALID,0,VALID,104,VALID,0,VALID,24.0253,VALID,121,VALID,0.969922,
2013-02-14, 00:02:04,VALID,1009.8,VALID,0,VALID,104,VALID,0,VALID,24.0253,VALID,116,VALID,1.21836,
2013-02-14, 00:03:04,VALID,1009.81,VALID,0,VALID,104,VALID,0,VALID,23.9845,VALID,115,VALID,0.809766,
2013-02-14, 00:04:04,VALID,1009.82,VALID,0,VALID,104,VALID,0,VALID,24.0253,VALID,116,VALID,0.873438,
2013-02-14, 00:05:04,VALID,1009.79,VALID,0,VALID,104,VALID,0,VALID,23.9845,VALID,113,VALID,0.707422,
2013-02-14, 00:06:04,VALID,1009.77,VALID,0,VALID,104,VALID,0,VALID,23.9845,VALID,115,VALID,0.634375,
2013-02-14, 00:07:04,VALID,1009.78,VALID,0,VALID,104,VALID,0,VALID,23.9863,VALID,126,VALID,1.45586,
2013-02-14, 00:08:04,VALID,1009.77,VALID,0,VALID,104,VALID,0,VALID,23.9668,VALID,115,VALID,1.49688,
2013-02-14, 00:09:04,VALID,1009.78,VALID,0,VALID,104,VALID,0,VALID,23.9278,VALID,133,VALID,1.05781,
2013-02-14, 00:10:04,VALID,1009.79,VALID,0,VALID,104,VALID,0,VALID,23.926,VALID,131,VALID,1.32422,
2013-02-14, 00:11:04,VALID,1009.78,VALID,0,VALID,104,VALID,0,VALID,23.9473,VALID,116,VALID,0.717969,
2013-02-14, 00:12:04,VALID,1009.77,VALID,0,VALID,104,VALID,0.112112,VALID,23.9668,VALID,129,VALID,1.36797,
2013-02-14, 00:13:04,VALID,1009.76,VALID,0,VALID,104,VALID,0,VALID,23.9473,VALID,125,VALID,1.62578,
2013-02-14, 00:14:04,VALID,1009.73,VALID,0,VALID,104,VALID,0,VALID,23.9084,VALID,135,VALID,1.33086,
2013-02-14, 00:15:04,VALID,1009.72,VALID,0,VALID,104,VALID,0,VALID,23.9278,VALID,121,VALID,0.789453,
2013-02-14, 00:16:04,VALID,1009.7,VALID,0,VALID,104,VALID,0,VALID,23.9084,VALID,130,VALID,1.41797,
2013-02-14, 00:17:04,VALID,1009.71,VALID,0,VALID,104,VALID,0,VALID,23.8889,VALID,148,VALID,1.09766,
2013-02-14, 00:18:04,VALID,1009.68,VALID,0,VALID,104,VALID,0,VALID,23.9084,VALID,132,VALID,0.614062,
2013-02-14, 00:19:04,VALID,1009.67,VALID,0,VALID,104,VALID,0,VALID,23.8889,VALID,115,VALID,1.33945,
2013-02-14, 00:20:04,VALID,1009.65,VALID,0,VALID,104,VALID,0,VALID,23.8694,VALID,121,VALID,1.44687,
2013-02-14, 00:21:04,VALID,1009.64,VALID,0,VALID,104,VALID,0,VALID,23.8481,VALID,116,VALID,0.938672,
2013-02-14, 00:22:04,VALID,1009.62,VALID,0,VALID,104,VALID,0,VALID,23.8499,VALID,134,VALID,1.25391,
2013-02-14, 00:23:04,VALID,1009.62,VALID,0.5,VALID,104,VALID,0,VALID,23.8304,VALID,122,VALID,1.58398,
2013-02-14, 00:24:04,VALID,1009.6,VALID,0,VALID,104,VALID,0,VALID,23.8304,VALID,140,VALID,1.07266,
2013-02-14, 00:25:04,VALID,1009.6,VALID,0,VALID,104,VALID,0,VALID,23.8304,VALID,121,VALID,1.02617,
2013-02-14, 00:26:04,VALID,1009.59,VALID,0,VALID,104,VALID,0,VALID,23.8109,VALID,110,VALID,0.755859,
2013-02-14, 00:27:04,VALID,1009.55,VALID,0,VALID,104,VALID,0,VALID,23.8304,VALID,97,VALID,0.657031,
2013-02-14, 00:28:04,VALID,1009.53,VALID,0,VALID,104,VALID,0,VALID,23.8322,VALID,95,VALID,0.747656,
2013-02-14, 00:29:04,VALID,1009.54,VALID,0,VALID,104,VALID,0,VALID,23.8109,VALID,96,VALID,0.474609,
2013-02-14, 00:30:04,VALID,1009.47,VALID,0,VALID,104,VALID,0,VALID,23.8109,VALID,83,VALID,0.483203,
2013-02-14, 00:31:04,VALID,1009.44,VALID,0,VALID,104,VALID,0,VALID,23.772,VALID,81,VALID,1.58125,
2013-02-14, 00:32:04,VALID,1009.44,VALID,0,VALID,104,VALID,0,VALID,23.7525,VALID,97,VALID,1.01602,
2013-02-14, 00:33:04,VALID,1009.39,VALID,0,VALID,104,VALID,0,VALID,23.772,VALID,124,VALID,1.48242,
2013-02-14, 00:34:04,VALID,1009.4,VALID,0,VALID,104,VALID,0,VALID,23.7525,VALID,120,VALID,0.560156,
2013-02-14, 00:35:04,VALID,1009.33,VALID,0,VALID,104,VALID,0,VALID,23.772,VALID,107,VALID,1.03594,
2013-02-14, 00:36:04,VALID,1009.35,VALID,0,VALID,104,VALID,0,VALID,23.772,VALID,124,VALID,0.629687,
2013-02-14, 00:37:04,VALID,1009.35,VALID,0,VALID,104,VALID,0,VALID,23.7525,VALID,93,VALID,0.619922,
2013-02-14, 00:38:04,VALID,1009.33,VALID,0,VALID,104,VALID,0,VALID,23.733,VALID,93,VALID,0.887891,
2013-02-14, 00:39:04,VALID,1009.32,VALID,0,VALID,104,VALID,0,VALID,23.7135,VALID,66,VALID,1.17773,
2013-02-14, 00:40:04,VALID,1009.31,VALID,0,VALID,104,VALID,0,VALID,23.7135,VALID,103,VALID,0.751953,
2013-02-14, 00:41:04,VALID,1009.28,VALID,0,VALID,104,VALID,0,VALID,23.7135,VALID,107,VALID,1.34687,
2013-02-14, 00:42:04,VALID,1009.29,VALID,0,VALID,104,VALID,0,VALID,23.694,VALID,74,VALID,0.858984,
2013-02-14, 00:43:04,VALID,1009.29,VALID,0,VALID,104,VALID,0,VALID,23.694,VALID,118,VALID,1.03477,
2013-02-14, 00:44:04,VALID,1009.25,VALID,0,VALID,104,VALID,0,VALID,23.6745,VALID,119,VALID,0.952344,
2013-02-14, 00:45:04,VALID,1009.21,VALID,0,VALID,104,VALID,0,VALID,23.655,VALID,124,VALID,0.952734,
2013-02-14, 00:46:04,VALID,1009.24,VALID,0,VALID,104,VALID,0,VALID,23.6745,VALID,98,VALID,0.963672,
2013-02-14, 00:47:04,VALID,1009.22,VALID,0,VALID,104,VALID,0,VALID,23.6356,VALID,134,VALID,1.16289,
2013-02-14, 00:48:04,VALID,1009.19,VALID,0,VALID,104,VALID,0,VALID,23.6338,VALID,93,VALID,0.915234,
2013-02-14, 00:49:04,VALID,1009.19,VALID,0,VALID,104,VALID,0,VALID,23.655,VALID,90,VALID,0.4,
2013-02-14, 00:50:04,VALID,1009.17,VALID,0,VALID,104,VALID,0,VALID,23.6356,VALID,94,VALID,0.682031,
2013-02-14, 00:51:04,VALID,1009.17,VALID,0.5,VALID,104,VALID,0,VALID,23.6356,VALID,105,VALID,1.19062,
2013-02-14, 00:52:04,VALID,1009.13,VALID,0,VALID,104,VALID,0,VALID,23.6161,VALID,119,VALID,1.05195,
2013-02-14, 00:53:04,VALID,1009.12,VALID,0,VALID,104,VALID,0,VALID,23.6161,VALID,73,VALID,1.65,
2013-02-14, 00:54:04,VALID,1009.11,VALID,0,VALID,104,VALID,0,VALID,23.5966,VALID,103,VALID,1.54492,
2013-02-14, 00:55:04,VALID,1009.09,VALID,0,VALID,104,VALID,0,VALID,23.5966,VALID,96,VALID,1.50352,
2013-02-14, 00:56:04,VALID,1009.04,VALID,0,VALID,104,VALID,0,VALID,23.6161,VALID,107,VALID,1.20313,
2013-02-14, 00:57:04,VALID,1009.04,VALID,0,VALID,104,VALID,0,VALID,23.5966,VALID,100,VALID,0.558203,
2013-02-14, 00:58:04,VALID,1009.02,VALID,0,VALID,104,VALID,0,VALID,23.5966,VALID,104,VALID,0.958594,
2013-02-14, 00:59:04,VALID,1008.98,VALID,0,VALID,104,VALID,0,VALID,23.5966,VALID,105,VALID,1.29414,
2013-02-14, 01:00:04,VALID,1008.99,VALID,0,VALID,104,VALID,0,VALID,23.5771,VALID,86,VALID,1.57344,
2013-02-14, 01:01:04,VALID,1008.95,VALID,0,VALID,104,VALID,0,VALID,23.5771,VALID,77,VALID,0.98125,
2013-02-14, 01:02:04,VALID,1008.96,VALID,0,VALID,104,VALID,0,VALID,23.5966,VALID,119,VALID,1.39883,
2013-02-14, 01:03:04,VALID,1008.92,VALID,0,VALID,104,VALID,0,VALID,23.5771,VALID,107,VALID,1.11016,
2013-02-14, 01:04:04,VALID,1008.9,VALID,0,VALID,104,VALID,0,VALID,23.5576,VALID,107,VALID,1.45898,
2013-02-14, 01:05:04,VALID,1008.9,VALID,0,VALID,104,VALID,0,VALID,23.5576,VALID,76,VALID,1.60078,
2013-02-14, 01:06:04,VALID,1008.89,VALID,0,VALID,104,VALID,0,VALID,23.5576,VALID,92,VALID,0.851172,
2013-02-14, 01:07:04,VALID,1008.9,VALID,0,VALID,104,VALID,0,VALID,23.5576,VALID,96,VALID,1.27383,
2013-02-14, 01:08:04,VALID,1008.86,VALID,0,VALID,104,VALID,0,VALID,23.5381,VALID,101,VALID,1.71016,
2013-02-14, 01:09:04,VALID,1008.84,VALID,0,VALID,104,VALID,0,VALID,23.5169,VALID,122,VALID,1.71445,
2013-02-14, 01:10:04,VALID,1008.84,VALID,0,VALID,104,VALID,0,VALID,23.5381,VALID,88,VALID,2.16602,
2013-02-14, 01:11:04,VALID,1008.82,VALID,0,VALID,104,VALID,0,VALID,23.5381,VALID,108,VALID,1.25352,
2013-02-14, 01:12:04,VALID,1008.82,VALID,0,VALID,104,VALID,0,VALID,23.5169,VALID,109,VALID,1.1793,
2013-02-14, 01:13:04,VALID,1008.8,VALID,0,VALID,104,VALID,0,VALID,23.5381,VALID,123,VALID,1.22812,
2013-02-14, 01:14:04,VALID,1008.79,VALID,0,VALID,104,VALID,0,VALID,23.5381,VALID,102,VALID,0.965625,
2013-02-14, 01:15:04,VALID,1008.77,VALID,0,VALID,104,VALID,0,VALID,23.4992,VALID,109,VALID,1.19883,
2013-02-14, 01:16:04,VALID,1008.77,VALID,0,VALID,104,VALID,0,VALID,23.5186,VALID,122,VALID,0.755859,
2013-02-14, 01:17:04,VALID,1008.76,VALID,0,VALID,104,VALID,0,VALID,23.5186,VALID,114,VALID,1.12109,
2013-02-14, 01:18:04,VALID,1008.76,VALID,0,VALID,104,VALID,0,VALID,23.4992,VALID,110,VALID,0.629297,
2013-02-14, 01:19:04,VALID,1008.77,VALID,0,VALID,104,VALID,0,VALID,23.4992,VALID,93,VALID,1.45664,
2013-02-14, 01:20:04,VALID,1008.78,VALID,0,VALID,104,VALID,0,VALID,23.4797,VALID,101,VALID,0.846094,
2013-02-14, 01:21:04,VALID,1008.76,VALID,0,VALID,104,VALID,0,VALID,23.4797,VALID,114,VALID,1.11797,
2013-02-14, 01:22:04,VALID,1008.75,VALID,0,VALID,104,VALID,0,VALID,23.4992,VALID,95,VALID,0.770703,
2013-02-14, 01:23:04,VALID,1008.79,VALID,0,VALID,104,VALID,0,VALID,23.4797,VALID,108,VALID,0.741406,
2013-02-14, 01:24:04,VALID,1008.74,VALID,0,VALID,104,VALID,0,VALID,23.4992,VALID,130,VALID,0.304688,
2013-02-14, 01:25:04,VALID,1008.74,VALID,0,VALID,104,VALID,0,VALID,23.4797,VALID,130,VALID,0.266016,
2013-02-14, 01:26:04,VALID,1008.75,VALID,0,VALID,104,VALID,0,VALID,23.4992,VALID,111,VALID,1.04492,
2013-02-14, 01:27:04,VALID,1008.74,VALID,0,VALID,104,VALID,0,VALID,23.4797,VALID,109,VALID,0.3125,
2013-02-14, 01:28:04,VALID,1008.74,VALID,0,VALID,104,VALID,0,VALID,23.4389,VALID,109,VALID,0.367969,
2013-02-14, 01:29:04,VALID,1008.72,VALID,0,VALID,104,VALID,0,VALID,23.4602,VALID,99,VALID,0.533984,
2013-02-14, 01:30:04,VALID,1008.71,VALID,0,VALID,104,VALID,0,VALID,23.4602,VALID,89,VALID,1.23945,
2013-02-14, 01:31:04,VALID,1008.7,VALID,0,VALID,104,VALID,0,VALID,23.4602,VALID,96,VALID,0.619141,
2013-02-14, 01:32:04,VALID,1008.7,VALID,0,VALID,104,VALID,0,VALID,23.4602,VALID,96,VALID,0.471484,
2013-02-14, 01:33:04,VALID,1008.69,VALID,0,VALID,104,VALID,0,VALID,23.4602,VALID,89,VALID,0.554688,
2013-02-14, 01:34:04,VALID,1008.67,VALID,0,VALID,104,VALID,0,VALID,23.4797,VALID,90,VALID,0.384766,
2013-02-14, 01:35:04,VALID,1008.66,VALID,0,VALID,104,VALID,0,VALID,23.4389,VALID,127,VALID,0.780469,
2013-02-14, 01:36:04,VALID,1008.64,VALID,0,VALID,104,VALID,0,VALID,23.4797,VALID,128,VALID,1.16406,
2013-02-14, 01:37:04,VALID,1008.63,VALID,0,VALID,104,VALID,0,VALID,23.4602,VALID,129,VALID,0.713281,
2013-02-14, 01:38:04,VALID,1008.62,VALID,0,VALID,104,VALID,0,VALID,23.4797,VALID,129,VALID,0.485547,
2013-02-14, 01:39:04,VALID,1008.6,VALID,0,VALID,104,VALID,0,VALID,23.4797,VALID,149,VALID,0.746094,
2013-02-14, 01:40:04,VALID,1008.6,VALID,0,VALID,104,VALID,0,VALID,23.4602,VALID,164,VALID,0.788672,
2013-02-14, 01:41:04,VALID,1008.62,VALID,0,VALID,104,VALID,0,VALID,23.4602,VALID,121,VALID,0.940625,
2013-02-14, 01:42:04,VALID,1008.58,VALID,0,VALID,104,VALID,0,VALID,23.4602,VALID,148,VALID,1.17656,
2013-02-14, 01:43:04,VALID,1008.58,VALID,0,VALID,104,VALID,0,VALID,23.4389,VALID,110,VALID,0.866016,
2013-02-14, 01:44:04,VALID,1008.58,VALID,0,VALID,104,VALID,0,VALID,23.4602,VALID,132,VALID,0.31875,
2013-02-14, 01:45:04,VALID,1008.61,VALID,0,VALID,104,VALID,0,VALID,23.4602,VALID,150,VALID,1.14414,
2013-02-14, 01:46:04,VALID,1008.58,VALID,0,VALID,104,VALID,0,VALID,23.4407,VALID,115,VALID,0.599219,
2013-02-14, 01:47:04,VALID,1008.6,VALID,0,VALID,104,VALID,0,VALID,23.4407,VALID,115,VALID,0.596484,
2013-02-14, 01:48:04,VALID,1008.6,VALID,0,VALID,104,VALID,0,VALID,23.4407,VALID,117,VALID,0.842578,
2013-02-14, 01:49:04,VALID,1008.57,VALID,0,VALID,104,VALID,0,VALID,23.4389,VALID,134,VALID,0.475781,
2013-02-14, 01:50:04,VALID,1008.59,VALID,0,VALID,104,VALID,0,VALID,23.4602,VALID,124,VALID,0.560938,
2013-02-14, 01:51:04,VALID,1008.58,VALID,0,VALID,104,VALID,0,VALID,23.4407,VALID,186,VALID,0.71875,
2013-02-14, 01:52:04,VALID,1008.61,VALID,0,VALID,104,VALID,0,VALID,23.4407,VALID,191,VALID,0.644922,
2013-02-14, 01:53:04,VALID,1008.59,VALID,0,VALID,104,VALID,0,VALID,23.4407,VALID,152,VALID,0.857031,
2013-02-14, 01:54:04,VALID,1008.59,VALID,0,VALID,104,VALID,0,VALID,23.4407,VALID,134,VALID,0.672266,
2013-02-14, 01:55:04,VALID,1008.62,VALID,0,VALID,104,VALID,0,VALID,23.4407,VALID,130,VALID,0.852734,
2013-02-14, 01:56:04,VALID,1008.63,VALID,0,VALID,104,VALID,0,VALID,23.4212,VALID,141,VALID,0.928906,
2013-02-14, 01:57:04,VALID,1008.61,VALID,0,VALID,104,VALID,0,VALID,23.4407,VALID,132,VALID,0.890625,
2013-02-14, 01:58:04,VALID,1008.62,VALID,0,VALID,104,VALID,0,VALID,23.4407,VALID,110,VALID,0.511719,
2013-02-14, 01:59:04,VALID,1008.65,VALID,0,VALID,104,VALID,0,VALID,23.4407,VALID,122,VALID,0.831641,
2013-02-14, 02:00:04,VALID,1008.64,VALID,0,VALID,104,VALID,0,VALID,23.4602,VALID,144,VALID,0.410937,
2013-02-14, 02:01:04,VALID,1008.63,VALID,0,VALID,104,VALID,0,VALID,23.4407,VALID,122,VALID,0.607813,
2013-02-14, 02:02:04,VALID,1008.62,VALID,0,VALID,104,VALID,0,VALID,23.4407,VALID,117,VALID,0.510547,
2013-02-14, 02:03:04,VALID,1008.64,VALID,0,VALID,104,VALID,0,VALID,23.4194,VALID,117,VALID,0.471094,
2013-02-14, 02:04:04,VALID,1008.65,VALID,0,VALID,104,VALID,0,VALID,23.4407,VALID,117,VALID,0.440625,
2013-02-14, 02:05:04,VALID,1008.65,VALID,0,VALID,104,VALID,0,VALID,23.4407,VALID,117,VALID,0.283984,
2013-02-14, 02:06:04,VALID,1008.65,VALID,0,VALID,104,VALID,0,VALID,23.4602,VALID,117,VALID,0.261328,
2013-02-14, 02:07:04,VALID,1008.62,VALID,0,VALID,104,VALID,0,VALID,23.4602,VALID,117,VALID,0.450391,
2013-02-14, 02:08:04,VALID,1008.63,VALID,0,VALID,104,VALID,0,VALID,23.4602,VALID,117,VALID,0.165625,
2013-02-14, 02:09:04,VALID,1008.62,VALID,0,VALID,104,VALID,0,VALID,23.4602,VALID,114,VALID,0.544141,
2013-02-14, 02:10:04,VALID,1008.61,VALID,0,VALID,104,VALID,0,VALID,23.4194,VALID,151,VALID,0.890234,
2013-02-14, 02:11:04,VALID,1008.59,VALID,0,VALID,104,VALID,0,VALID,23.4194,VALID,156,VALID,1.06289,
2013-02-14, 02:12:04,VALID,1008.6,VALID,0,VALID,104,VALID,0.112112,VALID,23.4,VALID,124,VALID,0.946094,
2013-02-14, 02:13:04,VALID,1008.61,VALID,0,VALID,104,VALID,0,VALID,23.4407,VALID,106,VALID,1.11484,
2013-02-14, 02:14:04,VALID,1008.57,VALID,0,VALID,104,VALID,0.112112,VALID,23.4194,VALID,117,VALID,0.788672,
2013-02-14, 02:15:04,VALID,1008.57,VALID,0,VALID,104,VALID,0,VALID,23.4194,VALID,121,VALID,0.923047,
2013-02-14, 02:16:04,VALID,1008.58,VALID,0,VALID,104,VALID,0,VALID,23.4017,VALID,140,VALID,0.714063,
2013-02-14, 02:17:04,VALID,1008.56,VALID,0,VALID,104,VALID,0,VALID,23.4602,VALID,107,VALID,0.63125,
2013-02-14, 02:18:04,VALID,1008.53,VALID,0,VALID,104,VALID,0.112112,VALID,23.4389,VALID,109,VALID,0.835156,
2013-02-14, 02:19:04,VALID,1008.54,VALID,0,VALID,104,VALID,0.112112,VALID,23.4602,VALID,116,VALID,0.775781,
2013-02-14, 02:20:04,VALID,1008.52,VALID,0,VALID,104,VALID,0,VALID,23.4389,VALID,106,VALID,0.726563,
2013-02-14, 02:21:04,VALID,1008.52,VALID,0,VALID,104,VALID,0,VALID,23.4602,VALID,107,VALID,0.622266,
2013-02-14, 02:22:04,VALID,1008.54,VALID,0,VALID,104,VALID,0.112112,VALID,23.4407,VALID,116,VALID,0.846875,
2013-02-14, 02:23:04,VALID,1008.5,VALID,0,VALID,104,VALID,0,VALID,23.4407,VALID,150,VALID,0.322266,
2013-02-14, 02:24:04,VALID,1008.52,VALID,0,VALID,104,VALID,0.112112,VALID,23.4194,VALID,104,VALID,0.692969,
2013-02-14, 02:25:04,VALID,1008.51,VALID,0,VALID,104,VALID,0,VALID,23.4407,VALID,115,VALID,0.738281,
2013-02-14, 02:26:04,VALID,1008.49,VALID,0,VALID,104,VALID,0,VALID,23.4212,VALID,110,VALID,1.22383,
2013-02-14, 02:27:04,VALID,1008.47,VALID,0,VALID,104,VALID,0,VALID,23.4407,VALID,124,VALID,0.658203,
2013-02-14, 02:28:04,VALID,1008.46,VALID,0,VALID,104,VALID,0,VALID,23.4602,VALID,124,VALID,0.738281,
2013-02-14, 02:29:04,VALID,1008.44,VALID,0,VALID,104,VALID,0,VALID,23.4602,VALID,97,VALID,0.825781,
2013-02-14, 02:30:04,VALID,1008.46,VALID,0,VALID,104,VALID,0,VALID,23.4194,VALID,115,VALID,0.913281,
2013-02-14, 02:31:04,VALID,1008.43,VALID,0,VALID,104,VALID,0,VALID,23.4212,VALID,129,VALID,1.12305,
2013-02-14, 02:32:04,VALID,1008.42,VALID,0,VALID,104,VALID,0,VALID,23.4407,VALID,79,VALID,0.583984,
2013-02-14, 02:33:04,VALID,1008.42,VALID,0,VALID,104,VALID,0,VALID,23.4389,VALID,100,VALID,0.686719,
2013-02-14, 02:34:04,VALID,1008.43,VALID,0,VALID,104,VALID,0,VALID,23.4389,VALID,101,VALID,0.64375,
2013-02-14, 02:35:04,VALID,1008.41,VALID,0,VALID,104,VALID,0,VALID,23.4407,VALID,115,VALID,0.63125,
2013-02-14, 02:36:04,VALID,1008.41,VALID,0,VALID,104,VALID,0,VALID,23.4407,VALID,115,VALID,0.440234,
2013-02-14, 02:37:04,VALID,1008.4,VALID,0,VALID,104,VALID,0,VALID,23.4602,VALID,115,VALID,0.346875,
2013-02-14, 02:38:04,VALID,1008.35,VALID,0,VALID,104,VALID,0,VALID,23.4797,VALID,137,VALID,0.493359,
2013-02-14, 02:39:04,VALID,1008.37,VALID,0,VALID,104,VALID,0,VALID,23.4389,VALID,137,VALID,0.407813,
2013-02-14, 02:40:04,VALID,1008.35,VALID,0,VALID,104,VALID,0,VALID,23.4797,VALID,137,VALID,0.861328,
2013-02-14, 02:41:04,VALID,1008.36,VALID,0,VALID,104,VALID,0,VALID,23.4602,VALID,155,VALID,0.828516,
2013-02-14, 02:42:04,VALID,1008.34,VALID,0,VALID,104,VALID,0,VALID,23.4407,VALID,154,VALID,0.553906,
2013-02-14, 02:43:04,VALID,1008.32,VALID,0,VALID,104,VALID,0,VALID,23.4407,VALID,137,VALID,0.858984,
2013-02-14, 02:44:04,VALID,1008.33,VALID,0,VALID,104,VALID,0,VALID,23.4584,VALID,132,VALID,0.773438,
2013-02-14, 02:45:04,VALID,1008.29,VALID,0,VALID,104,VALID,0,VALID,23.4602,VALID,134,VALID,1.13125,
2013-02-14, 02:46:04,VALID,1008.32,VALID,0,VALID,104,VALID,0,VALID,23.4407,VALID,118,VALID,0.378906,
2013-02-14, 02:47:04,VALID,1008.29,VALID,0,VALID,104,VALID,0,VALID,23.462,VALID,141,VALID,0.886719,
2013-02-14, 02:48:04,VALID,1008.27,VALID,0,VALID,104,VALID,0,VALID,23.4212,VALID,147,VALID,0.631641,
2013-02-14, 02:49:04,VALID,1008.26,VALID,0,VALID,104,VALID,0,VALID,23.4212,VALID,146,VALID,0.64375,
2013-02-14, 02:50:04,VALID,1008.2,VALID,0,VALID,104,VALID,0,VALID,23.4017,VALID,146,VALID,1.09648,
2013-02-14, 02:51:04,VALID,1008.19,VALID,0,VALID,104,VALID,0,VALID,23.4212,VALID,147,VALID,0.508594,
2013-02-14, 02:52:04,VALID,1008.15,VALID,0,VALID,104,VALID,0,VALID,23.4212,VALID,151,VALID,0.521875,
2013-02-14, 02:53:04,VALID,1008.15,VALID,0,VALID,104,VALID,0,VALID,23.4212,VALID,151,VALID,0.729297,
2013-02-14, 02:54:04,VALID,1008.1,VALID,0,VALID,104,VALID,0,VALID,23.4017,VALID,151,VALID,0.476953,
2013-02-14, 02:55:04,VALID,1008.07,VALID,0,VALID,104,VALID,0,VALID,23.4212,VALID,125,VALID,0.875781,
2013-02-14, 02:56:04,VALID,1008.06,VALID,0,VALID,104,VALID,0,VALID,23.4,VALID,138,VALID,0.482422,
2013-02-14, 02:57:04,VALID,1008.05,VALID,0,VALID,104,VALID,0,VALID,23.4212,VALID,137,VALID,0.269922,
2013-02-14, 02:58:04,VALID,1008.01,VALID,0,VALID,104,VALID,0,VALID,23.4017,VALID,137,VALID,0.548437,
2013-02-14, 02:59:04,VALID,1007.98,VALID,0,VALID,104,VALID,0,VALID,23.4017,VALID,137,VALID,0.470703,
2013-02-14, 03:00:04,VALID,1007.99,VALID,0,VALID,104,VALID,0,VALID,23.3823,VALID,137,VALID,0.170312,
2013-02-14, 03:01:04,VALID,1007.95,VALID,0,VALID,104,VALID,0,VALID,23.4017,VALID,137,VALID,0.0738281,
2013-02-14, 03:02:05,VALID,1007.93,VALID,0,VALID,104,VALID,0,VALID,23.4017,VALID,137,VALID,0.000390625,
2013-02-14, 03:03:05,VALID,1007.92,VALID,0,VALID,104,VALID,0,VALID,23.3823,VALID,137,VALID,0.00117188,
2013-02-14, 03:04:05,VALID,1007.88,VALID,0,VALID,104,VALID,0,VALID,23.3823,VALID,137,VALID,0.279297,
2013-02-14, 03:05:05,VALID,1007.86,VALID,0,VALID,104,VALID,0,VALID,23.3628,VALID,137,VALID,0.467969,
2013-02-14, 03:06:05,VALID,1007.81,VALID,0,VALID,104,VALID,0,VALID,23.3433,VALID,137,VALID,0.355859,
2013-02-14, 03:07:05,VALID,1007.79,VALID,0,VALID,104,VALID,0,VALID,23.3628,VALID,137,VALID,0.464063,
2013-02-14, 03:08:05,VALID,1007.76,VALID,0,VALID,104,VALID,0,VALID,23.3628,VALID,138,VALID,0.540625,
2013-02-14, 03:09:05,VALID,1007.75,VALID,0,VALID,104,VALID,0,VALID,23.3433,VALID,138,VALID,0.321094,
2013-02-14, 03:10:05,VALID,1007.72,VALID,0,VALID,104,VALID,0,VALID,23.3433,VALID,138,VALID,0.482812,
2013-02-14, 03:11:05,VALID,1007.71,VALID,0,VALID,104,VALID,0,VALID,23.3043,VALID,138,VALID,0.401953,
2013-02-14, 03:12:05,VALID,1007.7,VALID,0,VALID,104,VALID,0,VALID,23.3238,VALID,150,VALID,0.546875,
2013-02-14, 03:13:05,VALID,1007.67,VALID,0,VALID,104,VALID,0,VALID,23.3043,VALID,160,VALID,0.500391,
2013-02-14, 03:14:05,VALID,1007.68,VALID,0,VALID,104,VALID,0,VALID,23.2848,VALID,180,VALID,0.494141,
2013-02-14, 03:15:05,VALID,1007.67,VALID,0,VALID,104,VALID,0,VALID,23.2848,VALID,180,VALID,0.357422,
2013-02-14, 03:16:05,VALID,1007.63,VALID,0,VALID,104,VALID,0,VALID,23.2654,VALID,180,VALID,0.344141,
2013-02-14, 03:17:05,VALID,1007.61,VALID,0,VALID,104,VALID,0,VALID,23.2654,VALID,180,VALID,0.257813,
2013-02-14, 03:18:05,VALID,1007.6,VALID,0,VALID,104,VALID,0,VALID,23.2654,VALID,180,VALID,0.298438,
2013-02-14, 03:19:05,VALID,1007.61,VALID,0,VALID,104,VALID,0,VALID,23.2848,VALID,180,VALID,0.10625,
2013-02-14, 03:20:05,VALID,1007.63,VALID,0,VALID,104,VALID,0,VALID,23.2848,VALID,180,VALID,0.241406,
2013-02-14, 03:21:05,VALID,1007.57,VALID,0,VALID,104,VALID,0,VALID,23.2848,VALID,185,VALID,0.477344,
2013-02-14, 03:22:05,VALID,1007.55,VALID,0,VALID,104,VALID,0,VALID,23.2848,VALID,189,VALID,0.389453,
2013-02-14, 03:23:05,VALID,1007.54,VALID,0,VALID,104,VALID,0,VALID,23.3043,VALID,190,VALID,0.262109,
2013-02-14, 03:24:05,VALID,1007.51,VALID,0,VALID,104,VALID,0,VALID,23.2848,VALID,190,VALID,0.180078,
2013-02-14, 03:25:05,VALID,1007.47,VALID,0,VALID,104,VALID,0,VALID,23.2866,VALID,179,VALID,0.424609,
2013-02-14, 03:26:05,VALID,1007.45,VALID,0,VALID,104,VALID,0,VALID,23.2654,VALID,179,VALID,0.265625,
2013-02-14, 03:27:05,VALID,1007.41,VALID,0,VALID,104,VALID,0,VALID,23.2459,VALID,179,VALID,0.402734,
2013-02-14, 03:28:05,VALID,1007.38,VALID,0,VALID,104,VALID,0,VALID,23.2459,VALID,179,VALID,0.374609,
2013-02-14, 03:29:05,VALID,1007.37,VALID,0,VALID,104,VALID,0,VALID,23.2264,VALID,179,VALID,0.466016,
2013-02-14, 03:30:05,VALID,1007.34,VALID,0,VALID,104,VALID,0,VALID,23.2264,VALID,179,VALID,0.466406,
2013-02-14, 03:31:05,VALID,1007.31,VALID,0,VALID,104,VALID,0,VALID,23.2264,VALID,179,VALID,0.682031,
2013-02-14, 03:32:05,VALID,1007.3,VALID,0,VALID,104,VALID,0,VALID,23.2264,VALID,179,VALID,0.288672,
2013-02-14, 03:33:05,VALID,1007.28,VALID,0,VALID,104,VALID,0,VALID,23.2069,VALID,179,VALID,0.411719,
2013-02-14, 03:34:05,VALID,1007.23,VALID,0,VALID,104,VALID,0,VALID,23.2069,VALID,179,VALID,0.373437,
2013-02-14, 03:35:05,VALID,1007.22,VALID,0,VALID,104,VALID,0,VALID,23.1874,VALID,179,VALID,0.289844,
2013-02-14, 03:36:05,VALID,1007.19,VALID,0,VALID,104,VALID,0,VALID,23.2069,VALID,179,VALID,0.277344,
2013-02-14, 03:37:05,VALID,1007.21,VALID,0,VALID,104,VALID,0,VALID,23.2069,VALID,179,VALID,0.267969,
2013-02-14, 03:38:05,VALID,1007.16,VALID,0,VALID,104,VALID,0,VALID,23.2069,VALID,179,VALID,0.152344,
2013-02-14, 03:39:05,VALID,1007.14,VALID,0,VALID,104,VALID,0,VALID,23.1857,VALID,179,VALID,0.324609,
2013-02-14, 03:40:05,VALID,1007.13,VALID,0,VALID,104,VALID,0,VALID,23.2264,VALID,179,VALID,0.297266,
2013-02-14, 03:41:05,VALID,1007.13,VALID,0,VALID,104,VALID,0,VALID,23.2264,VALID,179,VALID,0,
2013-02-14, 03:42:05,VALID,1007.13,VALID,0,VALID,104,VALID,0,VALID,23.2069,VALID,179,VALID,0,
2013-02-14, 03:43:05,VALID,1007.14,VALID,0,VALID,104,VALID,0,VALID,23.1874,VALID,179,VALID,0.259375,
2013-02-14, 03:44:05,VALID,1007.14,VALID,0,VALID,104,VALID,0,VALID,23.1874,VALID,179,VALID,0.310547,
2013-02-14, 03:45:05,VALID,1007.16,VALID,0,VALID,104,VALID,0,VALID,23.1874,VALID,179,VALID,0.221875,
2013-02-14, 03:46:05,VALID,1007.17,VALID,0,VALID,104,VALID,0,VALID,23.1874,VALID,179,VALID,0.287891,
2013-02-14, 03:47:05,VALID,1007.17,VALID,0,VALID,104,VALID,0,VALID,23.2069,VALID,179,VALID,0.188281,
2013-02-14, 03:48:05,VALID,1007.18,VALID,0,VALID,104,VALID,0,VALID,23.2069,VALID,179,VALID,0.259766,
2013-02-14, 03:49:05,VALID,1007.19,VALID,0,VALID,104,VALID,0,VALID,23.2069,VALID,179,VALID,0.0339844,
2013-02-14, 03:50:05,VALID,1007.17,VALID,0,VALID,104,VALID,0,VALID,23.2069,VALID,179,VALID,0,
2013-02-14, 03:51:05,VALID,1007.2,VALID,0,VALID,104,VALID,0,VALID,23.2264,VALID,179,VALID,0.0609375,
2013-02-14, 03:52:05,VALID,1007.2,VALID,0,VALID,104,VALID,0,VALID,23.2069,VALID,179,VALID,0,
2013-02-14, 03:53:05,VALID,1007.21,VALID,0,VALID,104,VALID,0,VALID,23.2069,VALID,179,VALID,0,